Vertical_Velocity
-1 6 -3 -2 -2 3 3 2 3 2 6 0 4 2 1 -0 1 -2 2 -1 2 2 -0 -0 -1 0 1 2 0 -1 2 -2
-2 0 1 1 1 -2 -2 0 -2 -2 3 1 -1 -2 -2 2 4 1 1 1 3 -1 1 1 2 6 1 0 1 -1 -4 -1
1 0 3 -1 -2 -7 -3 -5 0 -0 -4 3 -3 0 2 1 -5 0 2 -2 2 -2 2 1 4 -1 -1 1 -1 -1 -1 -2
-1 -1 -2 -1 1 -1 3 1 3 0 1 4 -3 -0 2 1 1 4 1 -0 -3 -0 1 2 -1 -1 -0 -2 -3 -3 -3 -4
4 -2 -2 -1 -1 3 0 0 -1 0 1 1 0 0 -1 1 -2 0 -3 -2 4 5 2 -2 -0 -1 -6 -2 2 0 -2 -5
-4 -3 3 0 -1 -2 -1 -1 -2 -1 5 5 3 1 1 10 1 1 4 -1 -2 -1 -0 0 3 5 1 1 1 1 -2 4
-3 2 -1 -3 -1 -0 -2 -2 -3 6 -2 -6 -2 -0 3 -8 0 -3 -3 -2 -0 2 1 3 3 3 -1 -0 1 2 -4 -5
-2 -1 -0 4 -1 0 0 -1 -1 -2 -25 -10 -7 2 4 4 3 3 -6 -2 -5 -4 -1 -1 -2 1 3 3 -0 -2 1 -3
-1 -1 3 4 3 3 2 -4 0 1 6 3 -9 0 -1 2 3 5 -0 -0 2 3 2 1 4 -1 2 2 -0 4 3 1
0 2 2 0 2 4 2 6 5 4 6 4 0 -2 -0 5 8 4 1 1 4 0 2 5 -2 -1 0 -1 2 7 -6 2
0 -0 0 -1 2 4 1 2 6 8 4 -5 -11 3 1 1 -0 -0 3 4 3 2 3 6 3 1 -2 2 -3 -7 2 3
0 1 0 0 0 3 2 2 4 3 3 4 1 5 3 4 3 4 4 2 -0 -4 -2 0 2 2 2 -0 -4 1 -2 -9
4 2 1 2 3 1 -0 1 1 3 4 3 2 4 2 1 1 2 -1 3 4 9 7 6 10 6 4 -1 -0 5 -1 -3
0 1 1 1 -1 -2 -1 -0 0 1 4 1 1 -0 -1 1 0 0 1 1 6 2 6 6 6 10 0 9 8 -4 -3 -0
5 0 2 2 3 3 3 1 1 1 1 2 2 1 3 3 -0 -0 1 3 5 0 -2 1 2 9 4 -0 -29 -4 1 -3
1 4 2 2 1 2 3 3 3 1 3 2 0 1 1 -1 1 2 3 1 2 3 1 2 -4 -3 -5 -12 -2 1 -0 -3
2 3 3 3 3 2 1 4 -0 -1 -0 -0 -1 1 1 0 -0 1 -1 -1 3 2 -0 -1 -3 -3 -2 -1 1 4 -0 -1
1 1 2 1 1 3 2 1 -1 -1 -1 -2 -3 -3 -2 -2 -1 -1 -1 -4 -1 -5 4 3 -1 2 -1 2 6 3 -2 -1
1 1 0 2 0 -2 -1 -0 0 -0 -1 -1 0 0 0 -1 1 -0 -0 0 0 0 0 5 3 1 -1 2 1 -1 -1 -1
Height
1524 1528 1531 1534 1538 1540 1542 1545 1548 1551 1554 1555 1558 1561 1564 1565 1567 1568 1570 1571 1573 1574 1575 1575 1576 1577 1576 1578 1579 1579 1580 1581
1523 1526 1529 1533 1536 1539 1541 1544 1546 1549 1550 1553 1556 1559 1562 1564 1563 1565 1567 1568 1569 1571 1572 1571 1572 1573 1574 1575 1577 1577 1578 1578
1520 1523 1526 1529 1532 1534 1537 1540 1543 1546 1550 1552 1554 1558 1558 1560 1561 1562 1563 1564 1566 1568 1568 1568 1569 1569 1571 1573 1574 1574 1575 1575
1515 1518 1521 1524 1527 1529 1533 1536 1540 1543 1547 1548 1551 1554 1555 1555 1556 1557 1559 1560 1562 1564 1564 1565 1565 1567 1568 1569 1570 1570 1572 1571
1509 1512 1516 1518 1523 1527 1530 1534 1537 1539 1542 1545 1547 1549 1551 1552 1552 1553 1554 1556 1558 1558 1559 1560 1561 1563 1564 1566 1565 1564 1566 1566
1502 1505 1509 1514 1518 1521 1524 1529 1532 1534 1537 1541 1543 1544 1547 1549 1547 1548 1549 1551 1553 1554 1555 1556 1558 1558 1559 1560 1560 1561 1562 1562
1495 1500 1505 1508 1512 1514 1517 1521 1524 1528 1533 1537 1539 1539 1541 1540 1541 1542 1544 1545 1547 1549 1551 1552 1554 1554 1555 1555 1557 1557 1556 1555
1490 1493 1497 1501 1504 1506 1509 1513 1516 1520 1525 1527 1530 1532 1534 1533 1534 1535 1536 1539 1540 1542 1545 1547 1548 1549 1551 1552 1553 1552 1551 1550
1481 1485 1490 1494 1498 1501 1502 1505 1509 1511 1517 1523 1527 1527 1527 1526 1529 1528 1530 1532 1535 1537 1539 1541 1543 1545 1547 1548 1548 1548 1547 1546
1475 1479 1483 1488 1492 1495 1497 1500 1503 1505 1510 1515 1516 1519 1520 1520 1523 1523 1526 1528 1530 1532 1535 1536 1537 1539 1542 1543 1543 1543 1542 1544
1470 1474 1477 1481 1485 1489 1492 1496 1500 1503 1505 1508 1512 1514 1515 1515 1516 1517 1520 1522 1524 1527 1529 1531 1531 1534 1536 1537 1537 1540 1541 1542
1468 1470 1472 1475 1479 1483 1487 1490 1495 1498 1499 1503 1506 1508 1510 1510 1512 1513 1515 1517 1519 1520 1523 1524 1526 1528 1530 1531 1533 1535 1534 1535
1469 1469 1470 1472 1474 1478 1482 1486 1490 1494 1497 1499 1501 1503 1504 1505 1507 1509 1510 1512 1514 1516 1517 1519 1521 1523 1525 1527 1529 1530 1531 1528
1468 1468 1470 1471 1474 1476 1480 1483 1486 1489 1492 1494 1496 1498 1499 1501 1502 1504 1505 1507 1509 1512 1513 1515 1518 1522 1523 1525 1524 1526 1524 1524
1466 1467 1469 1471 1472 1475 1477 1479 1482 1485 1488 1490 1492 1494 1495 1496 1498 1499 1501 1503 1505 1506 1507 1510 1514 1518 1516 1516 1519 1519 1519 1517
1463 1466 1468 1470 1471 1472 1475 1477 1479 1482 1485 1486 1488 1490 1491 1493 1495 1497 1498 1499 1501 1502 1503 1506 1509 1510 1512 1515 1514 1513 1513 1512
1462 1464 1466 1468 1470 1472 1473 1476 1477 1480 1483 1483 1486 1487 1489 1490 1492 1494 1495 1496 1498 1500 1500 1504 1505 1509 1509 1509 1508 1508 1506 1505
1461 1462 1464 1465 1468 1471 1473 1474 1477 1479 1480 1482 1484 1485 1487 1489 1490 1492 1493 1495 1498 1499 1503 1503 1504 1506 1505 1504 1504 1501 1500 1500
1462 1463 1464 1465 1467 1469 1472 1474 1476 1478 1480 1481 1483 1484 1486 1488 1490 1492 1494 1496 1498 1498 1499 1501 1501 1501 1499 1499 1497 1496 1494 1493